Location: Barcelona
(41.3830°N, 2.1830°E)
Time: 06:06:28
(UTC+02:00)

ISS - Pass Details

Date: 17 March 2018
Orbit: 403 x 408 km, 51.6° (Epoch: 21 September)

Event Time Altitude Azimuth Distance (km) Brightness Sun altitude
Exits shadow 05:55:55 14° 305° (NW) 1,253 -1.8 -12.8°
Maximum altitude 05:58:41 90° 225° (SW) 417 -3.8 -12.3°
Drops below altitude 10° 06:02:00 10° 127° (SE) 1,472 -0.3 -11.7°
Sets 06:04:04 0° 127° (SE) 2,326 0.8 -11.3°
